SM4TUV Weather Reports


Display with metric or nautical units.
time (UTC)temp
F
wind
direction
speed
MPH
gust
MPH
rain 1hr
in
rain 24hr
in
rain mn
in
humidity
%
barometer
mb
20260509130529 61 171 14.0 19.0 0.00 0.00 0.00 23 987.7
20260509125629 61 202 11.0 15.0 0.00 0.00 0.00 24 987.9
20260509124729 61 193 13.0 19.0 0.00 0.00 0.00 23 988.0
20260509123829 61 194 11.0 18.0 0.00 0.00 0.00 23 988.1
20260509122029 60 196 14.0 21.0 0.00 0.00 0.00 22 988.1
20260509121129 60 192 16.0 17.0 0.00 0.00 0.00 22 988.4
20260509120229 60 190 15.0 20.0 0.00 0.00 0.00 21 988.4
20260509115329 61 215 10.0 17.0 0.00 0.00 0.00 23 988.5
20260509113529 60 197 14.0 20.0 0.00 0.00 0.00 22 988.8
20260509112629 60 189 12.0 20.0 0.00 0.00 0.00 21 988.9
20260509111729 60 192 13.0 17.0 0.00 0.00 0.00 21 988.9
20260509110829 60 188 8.0 10.0 0.00 0.00 0.00 23 989.1
20260509105929 61 177 10.0 16.0 0.00 0.00 0.00 22 989.1
20260509105029 60 178 10.0 15.0 0.00 0.00 0.00 22 989.2
20260509104129 61 194 11.0 17.0 0.00 0.00 0.00 21 989.5
20260509102329 61 203 12.0 15.0 0.00 0.00 0.00 19 989.6
20260509101429 60 206 12.0 17.0 0.00 0.00 0.00 20 989.8
20260509100529 59 192 12.0 15.0 0.00 0.00 0.00 20 989.8
20260509092929 58 201 11.0 14.0 0.00 0.00 0.00 23 990.3
20260509092029 58 196 7.0 14.0 0.00 0.00 0.00 21 990.5
20260509091129 57 215 10.0 11.0 0.00 0.00 0.00 22 990.6
20260509090229 58 274 7.0 11.0 0.00 0.00 0.00 22 990.6
20260509084429 57 245 3.0 5.0 0.00 0.00 0.00 26 990.6
20260509082629 54 300 6.0 11.0 0.00 0.00 0.00 27 990.9
20260509080829 57 283 4.0 6.0 0.00 0.00 0.00 26 990.9
20260509075929 54 259 4.0 5.0 0.00 0.00 0.00 26 990.9
20260509075029 53 258 5.0 6.0 0.00 0.00 0.00 25 991.1
20260509073229 54 295 6.0 7.0 0.00 0.00 0.00 28 991.0
20260509072329 53 285 5.0 8.0 0.00 0.00 0.00 28 991.1
20260509065629 52 236 4.0 7.0 0.00 0.00 0.00 27 991.2
20260509064729 52 210 5.0 8.0 0.00 0.00 0.00 27 991.3
20260509063829 52 213 4.0 8.0 0.00 0.00 0.00 25 991.3
20260509062929 51 200 5.0 8.0 0.00 0.00 0.00 28 991.2
20260509060229 48 194 4.0 5.0 0.00 0.00 0.00 33 991.2
20260509055329 48 198 5.0 8.0 0.00 0.00 0.00 32 991.2
20260509054429 47 194 5.0 8.0 0.00 0.00 0.00 35 991.3
20260509053529 47 160 7.0 9.0 0.00 0.00 0.00 35 991.3
20260509052629 46 179 8.0 10.0 0.00 0.00 0.00 36 991.2
20260509051729 45 174 7.0 10.0 0.00 0.00 0.00 37 991.3
20260509050829 44 172 4.0 8.0 0.00 0.00 0.00 39 991.4
20260509045929 44 167 7.0 10.0 0.00 0.00 0.00 40 991.5
20260509042329 43 168 7.0 8.0 0.00 0.00 0.00 40 991.3
20260509041429 43 166 6.0 8.0 0.00 0.00 0.00 41 991.4
20260509040529 43 177 6.0 8.0 0.00 0.00 0.00 41 991.4
20260509035629 43 168 6.0 8.0 0.00 0.00 0.00 40 991.3
20260509034729 43 157 6.0 8.0 0.00 0.00 0.00 41 991.3
20260509033829 43 161 6.0 8.0 0.00 0.00 0.00 41 991.5
20260509032929 43 166 6.0 8.0 0.00 0.00 0.00 41 991.6
20260509032029 44 165 6.0 8.0 0.00 0.00 0.00 41 991.4
20260509031129 43 182 8.0 8.0 0.00 0.00 0.00 42 991.5
20260509025330 43 169 7.0 8.0 0.00 0.00 0.00 43 991.5
20260509023529 43 168 6.0 8.0 0.00 0.00 0.00 44 991.5
20260509022629 43 175 7.0 8.0 0.00 0.00 0.00 43 991.7
20260509021729 43 174 6.0 8.0 0.00 0.00 0.00 43 991.7
20260509020829 43 181 5.0 5.0 0.00 0.00 0.00 44 991.7
20260509015929 43 202 5.0 6.0 0.00 0.00 0.00 45 991.8
20260509015029 43 182 5.0 7.0 0.00 0.00 0.00 45 991.7
20260509003830 44 181 6.0 8.0 0.00 0.00 0.00 45 991.8
20260509002929 45 184 7.0 10.0 0.00 0.00 0.00 45 991.9
20260509002029 45 181 6.0 7.0 0.00 0.00 0.00 45 991.8
20260509001129 45 211 6.0 7.0 0.00 0.00 0.00 45 991.8
20260508235330 45 190 6.0 8.0 0.00 0.00 0.00 45 991.8
20260508234429 46 202 6.0 8.0 0.00 0.00 0.00 45 991.8
20260508233529 46 189 6.0 8.0 0.00 0.00 0.00 44 991.8
20260508232630 46 194 8.0 11.0 0.00 0.00 0.00 44 991.7
20260508231729 47 184 8.0 11.0 0.00 0.00 0.00 43 991.5
20260508230830 47 184 6.0 7.0 0.00 0.00 0.00 43 991.5
20260508225929 47 191 8.0 11.0 0.00 0.00 0.00 43 991.4
20260508225029 47 178 9.0 11.0 0.00 0.00 0.00 43 991.5
20260508224129 48 188 8.0 13.0 0.00 0.00 0.00 42 991.5
20260508223229 48 201 8.0 12.0 0.00 0.00 0.00 42 991.4
20260508222330 48 184 7.0 11.0 0.00 0.00 0.00 42 991.3
20260508221429 49 210 8.0 10.0 0.00 0.00 0.00 41 991.2
20260508220529 50 211 11.0 14.0 0.00 0.00 0.00 40 991.2
20260508215629 50 190 12.0 17.0 0.00 0.00 0.00 39 991.0
20260508213829 51 181 14.0 18.0 0.00 0.00 0.00 39 991.0
20260508211129 51 182 16.0 19.0 0.00 0.00 0.00 39 990.7
20260508205329 52 177 13.0 17.0 0.00 0.00 0.00 41 990.7
20260508204429 52 187 11.0 17.0 0.00 0.00 0.00 41 990.5
20260508202630 53 175 5.0 8.0 0.00 0.00 0.00 38 990.4
20260508200829 53 222 6.0 10.0 0.00 0.00 0.00 38 990.3
20260508195929 54 192 6.0 10.0 0.00 0.00 0.00 37 990.2
20260508193229 54 194 5.0 7.0 0.00 0.00 0.00 35 989.9
20260508192330 54 195 5.0 7.0 0.00 0.00 0.00 33 989.8
20260508191429 55 187 5.0 9.0 0.00 0.00 0.00 33 989.7
20260508190529 55 181 5.0 7.0 0.00 0.00 0.00 32 989.7
20260508185629 55 188 5.0 5.0 0.00 0.00 0.00 32 989.7
20260508184729 56 195 6.0 7.0 0.00 0.00 0.00 31 989.6
20260508183829 56 195 6.0 8.0 0.00 0.00 0.00 30 989.6
20260508182029 58 205 7.0 10.0 0.00 0.00 0.00 29 989.4
20260508181130 58 221 9.0 10.0 0.00 0.00 0.00 29 989.4
20260508180229 59 227 8.0 12.0 0.00 0.00 0.00 28 989.4
20260508175330 59 215 8.0 15.0 0.00 0.00 0.00 28 989.3
20260508174429 60 229 9.0 13.0 0.00 0.00 0.00 28 989.3
20260508173529 60 206 8.0 12.0 0.00 0.00 0.00 28 989.0
20260508172629 61 222 8.0 10.0 0.00 0.00 0.00 26 989.0
20260508171729 61 229 8.0 11.0 0.00 0.00 0.00 26 989.0
20260508170829 62 236 6.0 8.0 0.00 0.00 0.00 26 988.9
20260508165929 62 250 7.0 12.0 0.00 0.00 0.00 25 988.8
20260508165029 62 238 8.0 11.0 0.00 0.00 0.00 25 988.9
20260508163229 62 211 8.0 11.0 0.00 0.00 0.00 26 988.8
20260508162330 62 221 9.0 13.0 0.00 0.00 0.00 25 988.8
20260508161429 63 214 10.0 15.0 0.00 0.00 0.00 24 988.7
20260508160529 63 237 9.0 12.0 0.00 0.00 0.00 25 988.8
20260508155629 63 273 7.0 9.0 0.00 0.00 0.00 22 988.8
20260508154729 63 259 8.0 11.0 0.00 0.00 0.00 23 988.9
20260508152929 64 224 6.0 10.0 0.00 0.00 0.00 21 988.9
20260508152029 65 262 7.0 10.0 0.00 0.00 0.00 22 988.8
20260508151130 65 238 7.0 13.0 0.00 0.00 0.00 21 989.0
20260508150229 65 259 6.0 9.0 0.00 0.00 0.00 23 989.1
20260508145329 64 224 9.0 13.0 0.00 0.00 0.00 22 989.1
20260508144430 63 183 10.0 15.0 0.00 0.00 0.00 24 989.1
20260508143529 63 134 12.0 32.0 0.00 0.00 0.00 23 989.2
20260508142629 63 175 7.0 15.0 0.00 0.00 0.00 23 989.2
20260508141729 63 277 6.0 11.0 0.00 0.00 0.00 23 989.3
20260508140829 64 290 6.0 9.0 0.00 0.00 0.00 23 989.3
20260508135929 64 209 7.0 11.0 0.00 0.00 0.00 23 989.4
20260508135029 64 264 8.0 12.0 0.00 0.00 0.00 23 989.4
20260508134129 64 253 10.0 16.0 0.00 0.00 0.00 21 989.7
20260508133229 63 186 12.0 16.0 0.00 0.00 0.00 22 989.6
20260508132329 63 221 11.0 13.0 0.00 0.00 0.00 21 989.7
20260508131429 63 210 9.0 13.0 0.00 0.00 0.00 21 989.7